When you browse on this site, cookies collect data to enhance your experience and personalize the content and advertising you see.
Visit our Privacy Policy to learn more. By continuing to use the site, you agree to this use of cookies and data.
  • In Austria
  • List of Countries
  • For 7 days
  • Water Temperature
  • Satellite Maps
  • Weather Map
  • News
  • Weather Widgets
  • user-avatar
    Login

    Hourly Weather Artashat

    Today, 10 December, Monday

    Time Temperature Precipitation Wind Pressure Humidity
    00:00 -2°C° 0 mm 1 mps 599 mmHg 74%
    01:00 -2°C° 0 mm 1 mps 599 mmHg 74%
    02:00 -2°C° 0 mm 1 mps 599 mmHg 75%
    03:00 -2°C° 0 mm 1 mps 599 mmHg 76%
    04:00 -2°C° 0 mm 1 mps 599 mmHg 76%
    05:00 -2°C° 0 mm 1 mps 599 mmHg 77%
    06:00 -4°C° 0 mm 2 mps 599 mmHg 77%
    07:00 -4°C° 0 mm 2 mps 599 mmHg 73%
    08:00 -3°C° 0 mm 2 mps 599 mmHg 69%
    09:00 -2°C° 0 mm 2 mps 600 mmHg 65%
    10:00 -1°C° 0 mm 2 mps 600 mmHg 62%
    11:00 +1°C° 0 mm 2 mps 600 mmHg 58%
    12:00 +2°C° 0 mm 2 mps 599 mmHg 55%
    13:00 +2°C° 0 mm 2 mps 599 mmHg 55%
    14:00 +1°C° 0 mm 3 mps 599 mmHg 55%
    15:00 +2°C° 0 mm 3 mps 599 mmHg 54%
    16:00 +2°C° 0 mm 2 mps 599 mmHg 59%
    17:00 -1°C° 0 mm 2 mps 599 mmHg 63%
    18:00 -2°C° 0 mm 2 mps 599 mmHg 68%
    19:00 -2°C° 0 mm 2 mps 599 mmHg 69%
    20:00 -2°C° 0 mm 2 mps 599 mmHg 69%
    21:00 -3°C° 0 mm 2 mps 599 mmHg 70%
    22:00 -3°C° 0 mm 2 mps 599 mmHg 71%
    23:00 -3°C° 0 mm 2 mps 599 mmHg 71%

    Tomorrow, 11 December, Tuesday

    Time Temperature Precipitation Wind Pressure Humidity
    00:00 -3°C° 0 mm 2 mps 599 mmHg 72%
    01:00 -3°C° 0 mm 2 mps 598 mmHg 72%
    02:00 -3°C° 0 mm 2 mps 598 mmHg 73%
    03:00 -3°C° 0 mm 2 mps 598 mmHg 73%
    04:00 -3°C° 0 mm 2 mps 598 mmHg 72%
    05:00 -4°C° 0 mm 2 mps 598 mmHg 72%
    06:00 -4°C° 0 mm 2 mps 598 mmHg 71%
    07:00 -3°C° 0 mm 2 mps 598 mmHg 66%
    08:00 -2°C° 0 mm 2 mps 599 mmHg 62%
    09:00 -1°C° 0 mm 2 mps 599 mmHg 57%
    10:00 +1°C° 0 mm 2 mps 599 mmHg 54%
    11:00 +1°C° 0 mm 3 mps 599 mmHg 51%
    12:00 +3°C° 0 mm 3 mps 599 mmHg 48%
    13:00 +3°C° 0 mm 4 mps 598 mmHg 48%
    14:00 +3°C° 0 mm 4 mps 598 mmHg 48%
    15:00 +3°C° 0 mm 4 mps 598 mmHg 48%
    16:00 +2°C° 0 mm 3 mps 598 mmHg 53%
    17:00 +1°C° 0 mm 3 mps 597 mmHg 58%
    18:00 +1°C° 0 mm 2 mps 597 mmHg 63%
    19:00 0°C° 0 mm 3 mps 597 mmHg 63%
    20:00 0°C° 0 mm 3 mps 597 mmHg 64%
    21:00 0°C° 0 mm 3 mps 597 mmHg 64%
    22:00 0°C° 0.1 mm 3 mps 597 mmHg 65%
    23:00 0°C° 0.1 mm 3 mps 597 mmHg 66%

    Day after tomorrow, 12 December, Wednesday

    Time Temperature Precipitation Wind Pressure Humidity
    00:00 0°C° 0.1 mm 3 mps 597 mmHg 66%
    01:00 0°C° 0.1 mm 3 mps 597 mmHg 68%
    02:00 -1°C° 0.1 mm 3 mps 597 mmHg 70%
    03:00 -1°C° 0.1 mm 3 mps 597 mmHg 71%
    04:00 -1°C° 0.2 mm 3 mps 597 mmHg 73%
    05:00 -1°C° 0.2 mm 3 mps 597 mmHg 74%
    06:00 -1°C° 0.2 mm 3 mps 596 mmHg 75%
    07:00 0°C° 0.2 mm 3 mps 597 mmHg 74%
    08:00 0°C° 0.2 mm 3 mps 597 mmHg 73%
    09:00 -1°C° 0.2 mm 4 mps 597 mmHg 73%
    10:00 0°C° 0.1 mm 4 mps 597 mmHg 70%
    11:00 +1°C° 0.1 mm 4 mps 597 mmHg 67%
    12:00 +1°C° 0.1 mm 5 mps 596 mmHg 64%
    13:00 +1°C° 0.3 mm 5 mps 596 mmHg 63%
    14:00 +2°C° 0.3 mm 6 mps 595 mmHg 62%
    15:00 +2°C° 0.3 mm 6 mps 595 mmHg 61%
    16:00 +1°C° 0.5 mm 5 mps 595 mmHg 63%
    17:00 +1°C° 0.5 mm 5 mps 595 mmHg 66%
    18:00 0°C° 0.5 mm 4 mps 595 mmHg 69%
    19:00 +1°C° 1.1 mm 3 mps 595 mmHg 71%
    20:00 +1°C° 1.1 mm 3 mps 595 mmHg 73%
    21:00 0°C° 1.1 mm 3 mps 594 mmHg 75%
    22:00 0°C° 1 mm 3 mps 595 mmHg 76%
    23:00 0°C° 1 mm 3 mps 595 mmHg 76%

    13 December, Thursday

    Time Temperature Precipitation Wind Pressure Humidity
    00:00 +1°C° 1 mm 2 mps 595 mmHg 77%
    01:00 +1°C° 1.1 mm 2 mps 595 mmHg 79%
    02:00 +1°C° 1.1 mm 2 mps 595 mmHg 81%
    03:00 -1°C° 1.1 mm 2 mps 595 mmHg 82%
    04:00 -1°C° 0.5 mm 2 mps 595 mmHg 80%
    05:00 -2°C° 0.5 mm 3 mps 595 mmHg 77%
    06:00 -2°C° 0.5 mm 3 mps 595 mmHg 74%
    07:00 -2°C° 0 mm 3 mps 596 mmHg 72%
    08:00 -2°C° 0 mm 3 mps 596 mmHg 70%
    09:00 -2°C° 0 mm 3 mps 597 mmHg 68%
    10:00 -1°C° 0 mm 3 mps 597 mmHg 65%
    11:00 0°C° 0 mm 3 mps 598 mmHg 62%
    12:00 -1°C° 0 mm 4 mps 598 mmHg 59%
    13:00 0°C° 0.1 mm 3 mps 598 mmHg 59%
    14:00 0°C° 0.1 mm 3 mps 598 mmHg 60%
    15:00 -1°C° 0.1 mm 2 mps 599 mmHg 60%
    16:00 -2°C° 0 mm 2 mps 599 mmHg 62%
    17:00 -3°C° 0 mm 2 mps 599 mmHg 63%
    18:00 -4°C° 0 mm 2 mps 599 mmHg 65%
    19:00 -4°C° 0 mm 2 mps 599 mmHg 65%
    20:00 -4°C° 0 mm 2 mps 600 mmHg 65%
    21:00 -5°C° 0 mm 2 mps 600 mmHg 65%
    22:00 -5°C° 0 mm 2 mps 600 mmHg 66%
    23:00 -6°C° 0 mm 2 mps 600 mmHg 66%

    14 December, Friday

    Time Temperature Precipitation Wind Pressure Humidity
    00:00 -6°C° 0 mm 2 mps 600 mmHg 66%
    01:00 -6°C° 0 mm 2 mps 601 mmHg 66%
    02:00 -7°C° 0 mm 2 mps 601 mmHg 66%
    03:00 -7°C° 0 mm 2 mps 601 mmHg 66%
    04:00 -7°C° 0 mm 2 mps 601 mmHg 66%
    05:00 -7°C° 0 mm 2 mps 601 mmHg 66%
    06:00 -8°C° 0 mm 2 mps 601 mmHg 66%
    07:00 -7°C° 0 mm 2 mps 601 mmHg 65%
    08:00 -6°C° 0 mm 2 mps 601 mmHg 63%
    09:00 -6°C° 0 mm 2 mps 602 mmHg 62%
    10:00 -5°C° 0 mm 2 mps 601 mmHg 61%
    11:00 -4°C° 0 mm 2 mps 601 mmHg 59%
    12:00 -3°C° 0 mm 2 mps 601 mmHg 58%
    13:00 -3°C° 0 mm 2 mps 601 mmHg 59%
    14:00 -3°C° 0 mm 2 mps 601 mmHg 59%
    15:00 -3°C° 0 mm 2 mps 601 mmHg 60%
    16:00 -3°C° 0 mm 2 mps 601 mmHg 63%
    17:00 -4°C° 0 mm 2 mps 601 mmHg 66%
    18:00 -5°C° 0 mm 2 mps 602 mmHg 69%
    19:00 -5°C° 0 mm 2 mps 602 mmHg 70%
    20:00 -6°C° 0 mm 2 mps 602 mmHg 71%
    21:00 -6°C° 0 mm 2 mps 602 mmHg 72%
    22:00 -7°C° 0 mm 2 mps 602 mmHg 72%
    23:00 -7°C° 0 mm 2 mps 602 mmHg 72%

    15 December, Saturday

    Time Temperature Precipitation Wind Pressure Humidity
    00:00 -7°C° 0 mm 2 mps 602 mmHg 72%
    01:00 -8°C° 0 mm 2 mps 602 mmHg 72%
    02:00 -8°C° 0 mm 2 mps 602 mmHg 72%
    03:00 -8°C° 0 mm 2 mps 602 mmHg 72%
    04:00 -8°C° 0 mm 2 mps 602 mmHg 71%
    05:00 -8°C° 0 mm 2 mps 602 mmHg 70%
    06:00 -8°C° 0 mm 1 mps 602 mmHg 69%
    07:00 -7°C° 0 mm 1 mps 602 mmHg 67%
    08:00 -6°C° 0 mm 1 mps 603 mmHg 65%
    09:00 -6°C° 0 mm 1 mps 603 mmHg 63%
    10:00 -4°C° 0 mm 1 mps 603 mmHg 61%
    11:00 -3°C° 0 mm 1 mps 603 mmHg 60%
    12:00 -2°C° 0 mm 1 mps 603 mmHg 58%
    13:00 -1°C° 0 mm 1 mps 603 mmHg 58%
    14:00 -1°C° 0 mm 1 mps 603 mmHg 59%
    15:00 -1°C° 0 mm 1 mps 603 mmHg 59%
    16:00 -2°C° 0 mm 1 mps 603 mmHg 62%
    17:00 -3°C° 0 mm 1 mps 602 mmHg 64%
    18:00 -4°C° 0 mm 1 mps 602 mmHg 67%
    19:00 -4°C° 0 mm 1 mps 602 mmHg 66%
    20:00 -6°C° 0 mm 1 mps 603 mmHg 66%
    21:00 -6°C° 0 mm 1 mps 603 mmHg 65%
    22:00 -6°C° 0 mm 1 mps 603 mmHg 65%
    23:00 -6°C° 0 mm 1 mps 603 mmHg 65%
    Show more